Location: Astronomical Observatory "G. J. Rheticus" in Feltre (Italy)
(46.0730°N, 11.9276°E)
Time: 11:29:49
(UTC+01:00)

ISS - Visible Passes

Search period start: 16 January 2019 00:00
Search period end: 26 January 2019 00:00
Orbit: 404 x 407 km, 51.6° (Epoch: 16 January)

Date Brightness Start Highest point End Pass type
(mag) Time Alt. Az. Time Alt. Az. Time Alt. Az.
21 Jan -1.4 18:43:37 10° SSE 18:44:20 12° SSE 18:44:20 12° SSE visible
22 Jan -1.5 19:26:24 10° SW 19:27:36 20° SW 19:27:36 20° SW visible
23 Jan -2.8 18:34:51 10° SSW 18:37:44 29° SE 18:38:04 29° SE visible
24 Jan -1.9 17:43:42 10° S 17:45:57 17° SE 17:48:13 10° E visible
24 Jan -2.6 19:18:49 10° WSW 19:21:08 42° WSW 19:21:08 42° WSW visible
25 Jan -3.7 18:26:54 10° SW 18:30:08 63° SSE 18:31:26 32° ENE visible
25 Jan -0.4 20:03:43 10° W 20:04:07 13° W 20:04:07 13° W visible
